Weather History for Superior, WI

Change the Weather History Date:

Friday, August 15, 2014

  Actual Average Record
Temperature  
Mean Temperature 66 °F -  
Max Temperature 83 °F 73 °F 93 °F (1970)
Min Temperature 49 °F 55 °F 36 °F (1960)
Cooling Degree Days 1    
Growing Degree Days 16 (Base 50)    
Moisture  
Dew Point 60 °F    
Average Humidity 78    
Maximum Humidity 100    
Minimum Humidity 51    
Precipitation  
Precipitation 0.00 in - - ()
Sea Level Pressure  
Sea Level Pressure 29.92 in    
Wind  
Wind Speed 3 mph (WSW)    
Max Wind Speed 12 mph    
Max Gust Speed -    
Visibility 9 miles    
Events Fog    
Averages and records for this station are not official NWS values.
T = Trace of Precipitation, MM = Missing Value Source: NWS Daily Summary

Daily Weather History Graph

Daily Weather History Graph

Search for Another Location

Airport:

Trip Planner

Search our weather history database for the weather conditions in past years. The results will help you decide how hot, cold, wet, or windy it might be!

Date:

Astronomy

Aug. 15, 2014 Rise Set
Actual Time 6:06 AM CDT 8:18 PM CDT
Civil Twilight 5:33 AM CDT 8:51 PM CDT
Nautical Twilight 4:51 AM CDT 9:32 PM CDT
Astronomical Twilight 4:05 AM CDT 10:18 PM CDT
Moon 10:55 PM CDT (8/15) 12:13 PM CDT (8/15)
Length of Visible Light 15h 18m
Length of Day
14h 12m
Waning Gibbous, 69% of the Moon is Illuminated
Aug 15
Waning Gibbous
Aug 17
Last Quarter
Aug 25
New
Sep 2
First Quarter
Sep 8
Full

Hourly Weather History & Observations

Time (CDT) Temp. Heat Index Dew Point Humidity Pressure Visibility Wind Dir Wind Speed Gust Speed Precip Events Conditions
12:15 AM 50.2 °F - 49.6 °F 98% 30.01 in 10.0 mi Calm Calm - N/A   Clear
12:35 AM 51.3 °F - 51.1 °F 99% 30.01 in 0.8 mi Calm Calm - N/A   Mist
12:55 AM 50.9 °F - 50.7 °F 99% 30.01 in 10.0 mi Calm Calm - N/A   Scattered Clouds
1:15 AM 52.2 °F - 52.2 °F 100% 30.00 in 5.0 mi SSW 3.5 mph - N/A   Scattered Clouds
1:35 AM 52.2 °F - 52.0 °F 99% 30.00 in 10.0 mi Calm Calm - N/A   Clear
1:55 AM 51.6 °F - 51.4 °F 99% 30.00 in 3.0 mi Calm Calm - N/A   Clear
2:15 AM 50.4 °F - 50.4 °F 100% 30.00 in 7.0 mi Calm Calm - N/A   Scattered Clouds
2:35 AM 51.1 °F - 51.1 °F 100% 30.00 in 10.0 mi Calm Calm - N/A   Mostly Cloudy
2:55 AM 52.2 °F - 52.0 °F 99% 29.99 in 10.0 mi Calm Calm - N/A   Mostly Cloudy
3:15 AM 52.5 °F - 52.3 °F 99% 29.99 in 4.0 mi Calm Calm - N/A   Mostly Cloudy
3:35 AM 52.3 °F - 52.2 °F 99% 29.99 in 10.0 mi Calm Calm - N/A   Mostly Cloudy
3:55 AM 52.0 °F - 52.0 °F 100% 29.99 in 10.0 mi Calm Calm - N/A   Mostly Cloudy
4:15 AM 52.2 °F - 52.2 °F 100% 29.99 in 7.0 mi Calm Calm - N/A   Mostly Cloudy
4:35 AM 52.0 °F - 52.0 °F 100% 29.99 in 1.0 mi Calm Calm - N/A   Mostly Cloudy
4:55 AM 50.7 °F - 50.7 °F 100% 29.98 in 1.0 mi Calm Calm - N/A   Mostly Cloudy
5:35 AM 49.1 °F - 48.9 °F 99% 29.99 in 10.0 mi Calm Calm - N/A   Scattered Clouds
5:55 AM 49.6 °F - 49.5 °F 99% 29.99 in 0.5 mi Calm Calm - N/A Fog Fog
6:15 AM 49.3 °F - 49.3 °F 100% 29.99 in 1.2 mi Calm Calm - N/A   Mist
6:35 AM 50.0 °F - 50.0 °F 100% 29.99 in 1.0 mi Calm Calm - N/A   Mist
6:55 AM 52.3 °F - 52.2 °F 99% 29.98 in 10.0 mi Calm Calm - N/A   Scattered Clouds
7:15 AM 55.2 °F - 54.5 °F 97% 29.99 in 10.0 mi Calm Calm - N/A   Scattered Clouds
7:35 AM 57.7 °F - 56.1 °F 94% 29.99 in 10.0 mi Calm Calm - N/A   Mostly Cloudy
7:55 AM 59.5 °F - 57.6 °F 93% 29.98 in 10.0 mi Calm Calm - N/A   Scattered Clouds
8:15 AM 61.3 °F - 56.8 °F 85% 29.98 in 10.0 mi Calm Calm - N/A   Clear
8:35 AM 63.5 °F - 55.8 °F 76% 29.98 in 10.0 mi Calm Calm - N/A   Clear
8:55 AM 64.6 °F - 55.8 °F 73% 29.97 in 10.0 mi SW 3.5 mph - N/A   Clear
9:15 AM 65.7 °F - 56.3 °F 72% 29.96 in 10.0 mi Calm Calm - N/A   Clear
9:35 AM 66.7 °F - 57.4 °F 72% 29.96 in 10.0 mi Calm Calm - N/A   Clear
9:55 AM 68.4 °F - 58.5 °F 71% 29.97 in 10.0 mi SW 4.6 mph - N/A   Clear
10:15 AM 70.0 °F - 59.9 °F 70% 29.96 in 10.0 mi SW 5.8 mph - N/A   Clear
10:35 AM 71.6 °F - 61.2 °F 70% 29.96 in 10.0 mi WSW 3.5 mph - N/A   Clear
10:55 AM 72.9 °F - 62.4 °F 70% 29.96 in 10.0 mi SW 3.5 mph - N/A   Clear
11:15 AM 75.0 °F - 64.2 °F 69% 29.95 in 10.0 mi WNW 4.6 mph - N/A   Clear
11:35 AM 75.6 °F - 64.8 °F 69% 29.94 in 10.0 mi West 3.5 mph - N/A   Clear
11:55 AM 77.0 °F - 65.5 °F 67% 29.94 in 10.0 mi SW 6.9 mph - N/A   Clear
12:15 PM 78.4 °F - 66.0 °F 66% 29.93 in 10.0 mi SW 5.8 mph - N/A   Clear
12:35 PM 77.7 °F - 66.0 °F 67% 29.93 in 10.0 mi SW 4.6 mph - N/A   Scattered Clouds
12:55 PM 77.2 °F - 65.8 °F 68% 29.91 in 10.0 mi WNW 5.8 mph - N/A   Mostly Cloudy
1:15 PM 80.1 °F 82.1 °F 65.8 °F 62% 29.90 in 10.0 mi SW 4.6 mph - N/A   Scattered Clouds
1:35 PM 78.8 °F - 64.9 °F 62% 29.90 in 10.0 mi WSW 6.9 mph - N/A   Scattered Clouds
1:55 PM 80.6 °F 82.3 °F 64.6 °F 58% 29.89 in 10.0 mi WSW 10.4 mph - N/A   Mostly Cloudy
2:15 PM 81.9 °F 83.5 °F 64.6 °F 56% 29.88 in 10.0 mi SW 9.2 mph - N/A   Mostly Cloudy
2:35 PM 81.9 °F 83.4 °F 64.4 °F 55% 29.88 in 10.0 mi SW 5.8 mph - N/A   Mostly Cloudy
2:55 PM 82.6 °F 84.1 °F 64.6 °F 54% 29.88 in 10.0 mi West 9.2 mph - N/A   Mostly Cloudy
3:15 PM 83.5 °F 84.7 °F 63.5 °F 51% 29.87 in 10.0 mi SW 10.4 mph - N/A   Scattered Clouds
3:35 PM 82.4 °F 83.7 °F 63.7 °F 53% 29.87 in 10.0 mi WSW 10.4 mph - N/A   Scattered Clouds
3:55 PM 82.8 °F 84.2 °F 64.0 °F 53% 29.87 in 10.0 mi West 6.9 mph - N/A   Scattered Clouds
4:15 PM 83.1 °F 84.4 °F 64.0 °F 52% 29.86 in 10.0 mi West 11.5 mph - N/A   Scattered Clouds
4:35 PM 83.1 °F 84.4 °F 63.9 °F 52% 29.86 in 10.0 mi SW 9.2 mph - N/A   Clear
4:55 PM 83.1 °F 84.4 °F 63.7 °F 52% 29.85 in 10.0 mi WSW 9.2 mph - N/A   Scattered Clouds
5:15 PM 82.9 °F 84.4 °F 64.4 °F 53% 29.84 in 10.0 mi WSW 9.2 mph - N/A   Scattered Clouds
5:35 PM 82.8 °F 84.3 °F 64.4 °F 54% 29.84 in 10.0 mi WSW 9.2 mph - N/A   Clear
5:55 PM 82.4 °F 84.1 °F 64.8 °F 55% 29.84 in 10.0 mi WSW 10.4 mph - N/A   Clear
6:15 PM 82.0 °F 83.8 °F 65.1 °F 56% 29.83 in 10.0 mi WSW 6.9 mph - N/A   Clear
6:35 PM 81.5 °F 83.4 °F 65.3 °F 58% 29.83 in 10.0 mi WSW 8.1 mph - N/A   Clear
6:55 PM 80.6 °F 82.7 °F 66.0 °F 61% 29.83 in 10.0 mi WSW 6.9 mph - N/A   Clear
7:15 PM 79.7 °F - 66.0 °F 63% 29.82 in 10.0 mi SW 5.8 mph - N/A   Clear
7:35 PM 78.4 °F - 66.4 °F 66% 29.81 in 10.0 mi SW 4.6 mph - N/A   Clear
7:55 PM 77.0 °F - 66.2 °F 69% 29.82 in 10.0 mi WSW 4.6 mph - N/A   Clear
8:15 PM 75.7 °F - 66.2 °F 72% 29.82 in 10.0 mi SW 3.5 mph - N/A   Clear
8:35 PM 71.8 °F - 66.2 °F 83% 29.83 in 10.0 mi Calm Calm - N/A   Clear
9:15 PM 72.3 °F - 66.2 °F 81% 29.83 in 10.0 mi SW 4.6 mph - N/A   Clear
9:35 PM 71.4 °F - 66.2 °F 84% 29.83 in 10.0 mi WSW 4.6 mph - N/A   Clear
9:55 PM 70.5 °F - 66.2 °F 86% 29.83 in 10.0 mi SW 4.6 mph - N/A   Clear
10:15 PM 70.0 °F - 66.2 °F 88% 29.82 in 10.0 mi WSW 5.8 mph - N/A   Clear
10:35 PM 70.2 °F - 66.2 °F 87% 29.81 in 10.0 mi WSW 4.6 mph - N/A   Clear
11:15 PM 69.3 °F - 66.0 °F 89% 29.81 in 10.0 mi WSW 6.9 mph - N/A   Clear
11:35 PM 69.8 °F - 66.2 °F 88% 29.81 in 10.0 mi WSW 6.9 mph - N/A   Clear
11:55 PM 69.1 °F - 66.0 °F 90% 29.81 in 10.0 mi SW 5.8 mph - N/A   Clear